| time (UTC) | temp F | wind direction | speed MPH | gust MPH | rain 1hr in | rain 24hr in | rain mn in | humidity % | barometer mb |
| 20260904161104 | 79 | 352 | 7.0 | 15.0 | 0.00 | 0.01 | 0.01 | 64 | 1008.1 |
| 20260904160103 | 81 | 343 | 5.0 | 12.0 | 0.00 | 0.01 | 0.01 | 64 | 1008.1 |
| 20260904155104 | 81 | 356 | 8.0 | 15.0 | 0.00 | 0.01 | 0.01 | 64 | 1008.1 |
| 20260904154103 | 80 | 346 | 9.0 | 13.0 | 0.00 | 0.01 | 0.01 | 66 | 1008.2 |
| 20260904152103 | 80 | 11 | 6.0 | 11.0 | 0.00 | 0.01 | 0.01 | 65 | 1008.2 |
| 20260904151125 | 80 | 339 | 7.0 | 11.0 | 0.00 | 0.01 | 0.01 | 64 | 1008.2 |
| 20260904150103 | 80 | 356 | 5.0 | 13.0 | 0.00 | 0.01 | 0.01 | 67 | 1008.3 |
| 20260904145104 | 80 | 0 | 10.0 | 13.0 | 0.00 | 0.01 | 0.01 | 67 | 1008.4 |
| 20260904144103 | 79 | 5 | 5.0 | 13.0 | 0.00 | 0.01 | 0.01 | 70 | 1008.4 |
| 20260904143104 | 79 | 324 | 8.0 | 11.0 | 0.00 | 0.01 | 0.01 | 69 | 1008.4 |
| 20260904142103 | 79 | 323 | 5.0 | 10.0 | 0.00 | 0.01 | 0.01 | 74 | 1008.5 |
| 20260904141104 | 78 | 342 | 7.0 | 10.0 | 0.00 | 0.01 | 0.01 | 75 | 1008.5 |
| 20260904140104 | 78 | 331 | 4.0 | 9.0 | 0.00 | 0.01 | 0.01 | 76 | 1008.6 |
| 20260904135103 | 77 | 304 | 2.0 | 8.0 | 0.00 | 0.01 | 0.01 | 78 | 1008.7 |
| 20260904134104 | 77 | 325 | 4.0 | 8.0 | 0.00 | 0.01 | 0.01 | 79 | 1008.8 |
| 20260904133103 | 76 | 318 | 5.0 | 9.0 | 0.00 | 0.01 | 0.01 | 83 | 1008.8 |
| 20260904132104 | 75 | 315 | 2.0 | 9.0 | 0.00 | 0.01 | 0.01 | 83 | 1008.8 |
| 20260904131103 | 75 | 293 | 2.0 | 4.0 | 0.00 | 0.01 | 0.01 | 83 | 1008.9 |
| 20260904130146 | 74 | 338 | 2.0 | 4.0 | 0.00 | 0.01 | 0.01 | 87 | 1008.7 |
| 20260904125103 | 73 | 255 | 1.0 | 3.0 | 0.00 | 0.01 | 0.01 | 88 | 1008.8 |
| 20260904124104 | 72 | 289 | 1.0 | 5.0 | 0.00 | 0.01 | 0.01 | 91 | 1008.8 |
| 20260904123103 | 72 | 289 | 1.0 | 4.0 | 0.00 | 0.01 | 0.01 | 95 | 1008.9 |
| 20260904122104 | 71 | 295 | 1.0 | 4.0 | 0.00 | 0.01 | 0.01 | 96 | 1008.9 |
| 20260904121103 | 70 | 252 | 1.0 | 4.0 | 0.00 | 0.01 | 0.01 | 97 | 1008.9 |
| 20260904120104 | 69 | 243 | 1.0 | 4.0 | 0.00 | 0.01 | 0.01 | 98 | 1009.1 |
| 20260904115103 | 69 | 236 | 1.0 | 3.0 | 0.00 | 0.01 | 0.01 | 98 | 1009.1 |
| 20260904113145 | 66 | 202 | 2.0 | 4.0 | 0.00 | 0.02 | 0.01 | 97 | 1009.0 |
| 20260904112104 | 65 | 183 | 1.0 | 2.0 | 0.00 | 0.03 | 0.01 | 97 | 1009.0 |
| 20260904111103 | 64 | 196 | 0.0 | 0.0 | 0.00 | 0.03 | 0.01 | 97 | 1008.9 |
| 20260904110104 | 64 | 196 | 0.0 | 0.0 | 0.00 | 0.05 | 0.01 | 97 | 1009.0 |
| 20260904105103 | 64 | 196 | 0.0 | 1.0 | 0.00 | 0.06 | 0.01 | 97 | 1009.0 |
| 20260904104125 | 64 | 195 | 1.0 | 2.0 | 0.00 | 0.06 | 0.01 | 97 | 1008.9 |
| 20260904103103 | 64 | 196 | 0.0 | 0.0 | 0.00 | 0.06 | 0.01 | 97 | 1008.8 |
| 20260904102104 | 64 | 196 | 0.0 | 1.0 | 0.00 | 0.06 | 0.01 | 97 | 1008.8 |
| 20260904101103 | 64 | 195 | 1.0 | 2.0 | 0.00 | 0.06 | 0.01 | 97 | 1008.7 |
| 20260904100104 | 64 | 88 | 0.0 | 1.0 | 0.00 | 0.06 | 0.01 | 97 | 1008.7 |
| 20260904095125 | 64 | 88 | 0.0 | 1.0 | 0.00 | 0.07 | 0.00 | 97 | 1008.5 |
| 20260904094103 | 64 | 88 | 1.0 | 1.0 | 0.00 | 0.07 | 0.00 | 97 | 1008.5 |
| 20260904093104 | 64 | 88 | 0.0 | 0.0 | 0.00 | 0.10 | 0.00 | 97 | 1008.5 |
| 20260904092103 | 64 | 88 | 0.0 | 0.0 | 0.00 | 0.30 | 0.00 | 97 | 1008.6 |
| 20260904091104 | 64 | 88 | 0.0 | 0.0 | 0.00 | 0.32 | 0.00 | 97 | 1008.5 |
| 20260904090146 | 64 | 88 | 0.0 | 0.0 | 0.00 | 0.32 | 0.00 | 97 | 1008.6 |
| 20260904085145 | 64 | 88 | 0.0 | 0.0 | 0.00 | 0.33 | 0.00 | 97 | 1008.6 |
| 20260904084104 | 64 | 88 | 0.0 | 1.0 | 0.00 | 0.33 | 0.00 | 97 | 1008.7 |
| 20260904083103 | 64 | 88 | 0.0 | 0.0 | 0.00 | 0.35 | 0.00 | 97 | 1008.6 |
| 20260904082104 | 64 | 88 | 0.0 | 1.0 | 0.00 | 0.37 | 0.00 | 96 | 1008.6 |
| 20260904081124 | 64 | 88 | 0.0 | 3.0 | 0.00 | 0.37 | 0.00 | 97 | 1008.7 |
| 20260904080125 | 63 | 70 | 1.0 | 2.0 | 0.00 | 0.37 | 0.00 | 96 | 1008.6 |
| 20260904075104 | 63 | 75 | 1.0 | 2.0 | 0.00 | 0.37 | 0.00 | 96 | 1008.5 |
| 20260904074125 | 63 | 310 | 1.0 | 2.0 | 0.00 | 0.37 | 0.00 | 96 | 1008.7 |
| 20260904073103 | 63 | 253 | 0.0 | 1.0 | 0.00 | 0.37 | 0.00 | 96 | 1008.9 |
| 20260904072103 | 63 | 254 | 0.0 | 0.0 | 0.00 | 0.37 | 0.00 | 96 | 1009.0 |
| 20260904071103 | 63 | 254 | 0.0 | 0.0 | 0.00 | 0.37 | 0.00 | 96 | 1009.0 |
| 20260904070104 | 63 | 254 | 0.0 | 0.0 | 0.00 | 0.37 | 0.00 | 96 | 1009.0 |
| 20260904065103 | 63 | 254 | 0.0 | 0.0 | 0.00 | 0.37 | 0.00 | 96 | 1009.2 |
| 20260904064104 | 63 | 253 | 0.0 | 3.0 | 0.00 | 0.37 | 0.00 | 96 | 1009.3 |
| 20260904063103 | 63 | 253 | 0.0 | 3.0 | 0.00 | 0.37 | 0.00 | 96 | 1009.3 |
| 20260904062104 | 63 | 254 | 0.0 | 2.0 | 0.00 | 0.37 | 0.00 | 95 | 1009.3 |
| 20260904061103 | 64 | 254 | 0.0 | 0.0 | 0.00 | 0.37 | 0.00 | 95 | 1009.4 |
| 20260904060104 | 64 | 254 | 0.0 | 0.0 | 0.00 | 0.37 | 0.00 | 95 | 1009.5 |
| 20260904055103 | 64 | 254 | 0.0 | 1.0 | 0.00 | 0.37 | 0.00 | 95 | 1009.4 |
| 20260904054104 | 64 | 254 | 0.0 | 1.0 | 0.00 | 0.37 | 0.00 | 95 | 1009.6 |
| 20260904053103 | 65 | 253 | 0.0 | 1.0 | 0.00 | 0.37 | 0.00 | 95 | 1009.7 |
| 20260904052103 | 65 | 254 | 0.0 | 1.0 | 0.00 | 0.37 | 0.00 | 95 | 1009.9 |
| 20260904051104 | 65 | 254 | 0.0 | 0.0 | 0.00 | 0.37 | 0.00 | 96 | 1009.9 |
| 20260904050103 | 65 | 253 | 0.0 | 1.0 | 0.00 | 0.37 | 0.00 | 95 | 1009.9 |
| 20260904045104 | 66 | 253 | 0.0 | 1.0 | 0.00 | 0.37 | 0.00 | 95 | 1010.1 |
| 20260904044103 | 66 | 253 | 0.0 | 2.0 | 0.00 | 0.37 | 0.00 | 96 | 1010.2 |
| 20260904043104 | 66 | 254 | 0.0 | 0.0 | 0.00 | 0.37 | 0.00 | 95 | 1010.5 |
| 20260904042103 | 66 | 254 | 0.0 | 1.0 | 0.00 | 0.37 | 0.00 | 95 | 1010.5 |
| 20260904041104 | 66 | 253 | 0.0 | 2.0 | 0.00 | 0.37 | 0.00 | 95 | 1010.4 |
| 20260904040103 | 66 | 219 | 1.0 | 3.0 | 0.00 | 0.73 | 0.37 | 95 | 1010.3 |
| 20260904035104 | 66 | 212 | 2.0 | 2.0 | 0.00 | 0.37 | 0.37 | 95 | 1010.5 |
| 20260904034145 | 66 | 285 | 0.0 | 2.0 | 0.00 | 0.37 | 0.37 | 95 | 1010.5 |
| 20260904033103 | 67 | 285 | 1.0 | 3.0 | 0.00 | 0.37 | 0.37 | 95 | 1010.5 |
| 20260904032104 | 67 | 225 | 0.0 | 2.0 | 0.00 | 0.37 | 0.37 | 95 | 1010.7 |
| 20260904031103 | 67 | 186 | 0.0 | 2.0 | 0.00 | 0.37 | 0.37 | 95 | 1010.6 |
| 20260904030104 | 67 | 174 | 1.0 | 2.0 | 0.00 | 0.37 | 0.37 | 95 | 1010.5 |
| 20260904025103 | 67 | 234 | 0.0 | 2.0 | 0.00 | 0.37 | 0.37 | 95 | 1010.7 |
| 20260904024104 | 67 | 209 | 1.0 | 3.0 | 0.00 | 0.37 | 0.37 | 94 | 1010.7 |
| 20260904023103 | 67 | 82 | 0.0 | 0.0 | 0.00 | 0.37 | 0.37 | 94 | 1010.8 |
| 20260904022104 | 68 | 82 | 0.0 | 1.0 | 0.00 | 0.37 | 0.37 | 95 | 1010.9 |
| 20260904021104 | 68 | 82 | 0.0 | 0.0 | 0.00 | 0.37 | 0.37 | 94 | 1011.0 |
| 20260904020104 | 68 | 82 | 0.0 | 0.0 | 0.00 | 0.37 | 0.37 | 94 | 1011.0 |
| 20260904015103 | 68 | 82 | 0.0 | 0.0 | 0.00 | 0.37 | 0.37 | 94 | 1011.1 |
| 20260904014103 | 68 | 82 | 0.0 | 0.0 | 0.00 | 0.37 | 0.37 | 94 | 1011.2 |
| 20260904013104 | 69 | 82 | 0.0 | 1.0 | 0.00 | 0.37 | 0.37 | 94 | 1011.4 |
| 20260904011104 | 69 | 82 | 0.0 | 0.0 | 0.00 | 0.37 | 0.37 | 94 | 1011.5 |
| 20260904010103 | 69 | 82 | 0.0 | 0.0 | 0.00 | 0.37 | 0.37 | 94 | 1011.5 |
| 20260904005104 | 69 | 82 | 0.0 | 1.0 | 0.00 | 0.37 | 0.37 | 94 | 1011.3 |
| 20260904004103 | 70 | 82 | 0.0 | 1.0 | 0.00 | 0.37 | 0.37 | 93 | 1011.2 |
| 20260904003104 | 70 | 82 | 0.0 | 0.0 | 0.00 | 0.37 | 0.37 | 93 | 1011.1 |
| 20260904002103 | 70 | 82 | 0.0 | 1.0 | 0.00 | 0.37 | 0.37 | 93 | 1010.9 |
| 20260904001103 | 71 | 82 | 0.0 | 2.0 | 0.00 | 0.37 | 0.37 | 93 | 1010.8 |
| 20260904000103 | 71 | 69 | 1.0 | 1.0 | 0.00 | 0.37 | 0.37 | 93 | 1010.6 |
| 20260903235104 | 71 | 68 | 0.0 | 1.0 | 0.00 | 0.37 | 0.37 | 92 | 1010.8 |
| 20260903234103 | 72 | 68 | 0.0 | 2.0 | 0.00 | 0.37 | 0.37 | 92 | 1010.7 |
| 20260903233104 | 72 | 68 | 1.0 | 2.0 | 0.00 | 0.37 | 0.37 | 91 | 1010.6 |
| 20260903232103 | 73 | 111 | 1.0 | 2.0 | 0.00 | 0.37 | 0.37 | 90 | 1010.7 |
| 20260903231105 | 73 | 111 | 0.0 | 2.0 | 0.00 | 0.37 | 0.37 | 90 | 1010.2 |
| 20260903230124 | 74 | 111 | 1.0 | 2.0 | 0.00 | 0.37 | 0.37 | 90 | 1010.2 |
| 20260903225104 | 74 | 111 | 1.0 | 3.0 | 0.00 | 0.37 | 0.37 | 89 | 1010.5 |
| 20260903224124 | 74 | 99 | 1.0 | 4.0 | 0.00 | 0.37 | 0.37 | 88 | 1010.4 |
| 20260903223104 | 75 | 125 | 2.0 | 3.0 | 0.00 | 0.37 | 0.37 | 88 | 1010.6 |
| 20260903222103 | 76 | 90 | 0.0 | 3.0 | 0.00 | 0.37 | 0.37 | 85 | 1010.9 |
| 20260903221104 | 76 | 129 | 1.0 | 4.0 | 0.00 | 0.37 | 0.37 | 84 | 1010.8 |
| 20260903215125 | 76 | 74 | 2.0 | 5.0 | 0.00 | 0.37 | 0.37 | 84 | 1010.6 |
| 20260903214104 | 76 | 100 | 3.0 | 7.0 | 0.00 | 0.37 | 0.37 | 84 | 1010.5 |
| 20260903213103 | 76 | 142 | 2.0 | 6.0 | 0.00 | 0.37 | 0.37 | 85 | 1010.5 |
| 20260903212104 | 76 | 143 | 2.0 | 9.0 | 0.00 | 0.37 | 0.37 | 86 | 1010.7 |
| 20260903211103 | 76 | 103 | 3.0 | 6.0 | 0.00 | 0.37 | 0.37 | 85 | 1010.6 |
| 20260903210104 | 77 | 69 | 4.0 | 9.0 | 0.00 | 0.37 | 0.37 | 83 | 1010.7 |
| 20260903205103 | 78 | 90 | 5.0 | 9.0 | 0.00 | 0.37 | 0.37 | 81 | 1010.5 |
| 20260903204104 | 79 | 101 | 5.0 | 9.0 | 0.00 | 0.37 | 0.37 | 81 | 1010.6 |
| 20260903203124 | 78 | 57 | 2.0 | 8.0 | 0.00 | 0.37 | 0.37 | 82 | 1010.6 |
| 20260903202104 | 79 | 356 | 4.0 | 9.0 | 0.00 | 0.37 | 0.37 | 80 | 1010.8 |
| 20260903201103 | 80 | 246 | 1.0 | 7.0 | 0.00 | 0.37 | 0.37 | 75 | 1010.6 |
| 20260903200104 | 82 | 222 | 4.0 | 8.0 | 0.00 | 0.37 | 0.37 | 73 | 1010.6 |
| 20260903195124 | 82 | 201 | 6.0 | 10.0 | 0.00 | 0.37 | 0.37 | 75 | 1010.7 |
| 20260903194124 | 81 | 240 | 3.0 | 7.0 | 0.00 | 0.37 | 0.37 | 79 | 1010.8 |
| 20260903193103 | 80 | 224 | 3.0 | 6.0 | 0.00 | 0.37 | 0.37 | 79 | 1010.9 |
| 20260903192103 | 79 | 259 | 2.0 | 7.0 | 0.00 | 0.37 | 0.37 | 78 | 1011.2 |
| 20260903191104 | 80 | 248 | 3.0 | 6.0 | 0.00 | 0.37 | 0.37 | 77 | 1011.1 |
| 20260903190103 | 80 | 185 | 4.0 | 7.0 | 0.00 | 0.37 | 0.37 | 77 | 1011.2 |
| 20260903185104 | 80 | 217 | 4.0 | 7.0 | 0.00 | 0.37 | 0.37 | 77 | 1011.3 |
| 20260903184103 | 81 | 197 | 3.0 | 10.0 | 0.00 | 0.37 | 0.37 | 77 | 1011.4 |
| 20260903183104 | 81 | 184 | 4.0 | 6.0 | 0.00 | 0.37 | 0.37 | 77 | 1011.4 |
| 20260903182103 | 80 | 217 | 2.0 | 5.0 | 0.00 | 0.37 | 0.37 | 77 | 1011.6 |
| 20260903181104 | 82 | 239 | 3.0 | 6.0 | 0.00 | 0.37 | 0.37 | 75 | 1011.5 |
| 20260903175125 | 81 | 243 | 4.0 | 10.0 | 0.00 | 0.37 | 0.37 | 77 | 1011.7 |
| 20260903174104 | 80 | 248 | 3.0 | 11.0 | 0.00 | 0.37 | 0.37 | 76 | 1011.7 |
| 20260903173103 | 80 | 213 | 4.0 | 10.0 | 0.00 | 0.37 | 0.37 | 77 | 1011.8 |
| 20260903172125 | 80 | 279 | 3.0 | 9.0 | 0.00 | 0.37 | 0.37 | 78 | 1012.0 |
| 20260903171103 | 80 | 269 | 3.0 | 8.0 | 0.00 | 0.37 | 0.37 | 77 | 1012.1 |
| 20260903170104 | 80 | 332 | 1.0 | 9.0 | 0.00 | 0.37 | 0.37 | 78 | 1011.9 |
| 20260903165124 | 79 | 210 | 5.0 | 11.0 | 0.00 | 0.37 | 0.37 | 80 | 1011.9 |
| 20260903164104 | 79 | 213 | 3.0 | 8.0 | 0.00 | 0.37 | 0.37 | 84 | 1011.9 |
| 20260903163103 | 78 | 247 | 3.0 | 5.0 | 0.00 | 0.37 | 0.37 | 85 | 1011.8 |
| 20260903162104 | 77 | 251 | 1.0 | 6.0 | 0.00 | 0.37 | 0.37 | 84 | 1011.9 |